| time (UTC) | temp F | wind direction | speed MPH | gust MPH | rain 1hr in | rain 24hr in | rain mn in | humidity % | barometer mb |
| 20260901131551 | 81 | 129 | 0.0 | 3.0 | 0.00 | 0.00 | 0.00 | 64 | 1011.5 |
| 20260901130049 | 80 | 135 | 0.0 | 4.0 | 0.00 | 0.00 | 0.00 | 65 | 1011.3 |
| 20260901124547 | 78 | 262 | 0.0 | 3.0 | 0.00 | 0.00 | 0.00 | 67 | 1011.3 |
| 20260901123046 | 78 | 227 | 1.0 | 5.0 | 0.00 | 0.00 | 0.00 | 67 | 1011.2 |
| 20260901121559 | 77 | 179 | 0.0 | 4.0 | 0.00 | 0.00 | 0.00 | 66 | 1011.1 |
| 20260901120044 | 78 | 162 | 0.0 | 4.0 | 0.00 | 0.00 | 0.00 | 66 | 1010.9 |
| 20260901114543 | 77 | 226 | 0.0 | 4.0 | 0.00 | 0.00 | 0.00 | 66 | 1010.8 |
| 20260901113053 | 78 | 228 | 0.0 | 6.0 | 0.00 | 0.00 | 0.00 | 65 | 1010.7 |
| 20260901111543 | 78 | 291 | 1.0 | 3.0 | 0.00 | 0.00 | 0.00 | 65 | 1010.6 |
| 20260901110039 | 78 | 291 | 1.0 | 4.0 | 0.00 | 0.00 | 0.00 | 65 | 1010.5 |
| 20260901104549 | 78 | 296 | 0.0 | 3.0 | 0.00 | 0.00 | 0.00 | 64 | 1010.4 |
| 20260901103036 | 79 | 310 | 0.0 | 4.0 | 0.00 | 0.00 | 0.00 | 63 | 1010.4 |
| 20260901101535 | 80 | 99 | 0.0 | 5.0 | 0.00 | 0.00 | 0.00 | 61 | 1010.4 |
| 20260901100039 | 80 | 209 | 0.0 | 3.0 | 0.00 | 0.00 | 0.00 | 62 | 1010.2 |
| 20260901094534 | 80 | 215 | 1.0 | 4.0 | 0.00 | 0.00 | 0.00 | 60 | 1009.9 |
| 20260901093033 | 81 | 227 | 1.0 | 4.0 | 0.00 | 0.00 | 0.00 | 60 | 1009.9 |
| 20260901091534 | 80 | 241 | 1.0 | 6.0 | 0.00 | 0.00 | 0.00 | 60 | 1009.8 |
| 20260901090031 | 79 | 193 | 1.0 | 5.0 | 0.00 | 0.00 | 0.00 | 62 | 1009.7 |
| 20260901084550 | 78 | 156 | 1.0 | 4.0 | 0.00 | 0.00 | 0.00 | 65 | 1009.6 |
| 20260901083033 | 77 | 155 | 0.0 | 0.0 | 0.00 | 0.00 | 0.00 | 69 | 1009.5 |
| 20260901081528 | 77 | 155 | 0.0 | 2.0 | 0.00 | 0.00 | 0.00 | 68 | 1009.4 |
| 20260901080027 | 78 | 155 | 0.0 | 1.0 | 0.00 | 0.00 | 0.00 | 66 | 1009.5 |
| 20260901074524 | 78 | 155 | 0.0 | 2.0 | 0.00 | 0.00 | 0.00 | 65 | 1009.4 |
| 20260901073020 | 79 | 155 | 0.0 | 1.0 | 0.00 | 0.00 | 0.00 | 64 | 1009.5 |
| 20260901071517 | 80 | 155 | 0.0 | 3.0 | 0.00 | 0.00 | 0.00 | 63 | 1009.7 |
| 20260901070015 | 81 | 155 | 0.0 | 4.0 | 0.00 | 0.00 | 0.00 | 61 | 1009.8 |
| 20260901064512 | 82 | 154 | 0.0 | 2.0 | 0.00 | 0.00 | 0.00 | 58 | 1009.8 |
| 20260901063008 | 83 | 154 | 0.0 | 4.0 | 0.00 | 0.00 | 0.00 | 56 | 1009.9 |
| 20260901061510 | 83 | 160 | 0.0 | 4.0 | 0.00 | 0.00 | 0.00 | 55 | 1009.9 |
| 20260901060005 | 83 | 247 | 0.0 | 5.0 | 0.00 | 0.00 | 0.00 | 55 | 1010.0 |
| 20260901054504 | 84 | 232 | 1.0 | 4.0 | 0.00 | 0.00 | 0.00 | 55 | 1010.0 |
| 20260901053002 | 84 | 234 | 1.0 | 6.0 | 0.00 | 0.00 | 0.00 | 55 | 1009.9 |
| 20260901051502 | 84 | 242 | 1.0 | 5.0 | 0.00 | 0.00 | 0.00 | 56 | 1009.8 |
| 20260901050002 | 84 | 245 | 1.0 | 4.0 | 0.00 | 0.00 | 0.00 | 56 | 1009.7 |
| 20260901044604 | 84 | 228 | 1.0 | 4.0 | 0.00 | 0.00 | 0.00 | 56 | 1009.7 |
| 20260901043100 | 84 | 187 | 1.0 | 4.0 | 0.00 | 0.00 | 0.00 | 57 | 1009.7 |
| 20260901041600 | 84 | 251 | 0.0 | 4.0 | 0.00 | 0.00 | 0.00 | 57 | 1009.4 |
| 20260901040100 | 84 | 131 | 0.0 | 3.0 | 0.00 | 0.00 | 0.00 | 59 | 1009.4 |
| 20260901034608 | 82 | 122 | 0.0 | 3.0 | 0.00 | 0.00 | 0.00 | 62 | 1009.3 |
| 20260901033112 | 80 | 122 | 0.0 | 2.0 | 0.00 | 0.00 | 0.00 | 71 | 1009.2 |
| 20260901031602 | 79 | 224 | 0.0 | 1.0 | 0.00 | 0.00 | 0.00 | 76 | 1009.0 |
| 20260901030058 | 80 | 224 | 0.0 | 1.0 | 0.00 | 0.00 | 0.00 | 76 | 1009.0 |
| 20260901024601 | 81 | 224 | 0.0 | 0.0 | 0.00 | 0.00 | 0.00 | 74 | 1009.0 |
| 20260901023057 | 81 | 224 | 0.0 | 0.0 | 0.00 | 0.00 | 0.00 | 72 | 1008.8 |
| 20260901021555 | 83 | 224 | 0.0 | 0.0 | 0.00 | 0.00 | 0.00 | 71 | 1008.5 |
| 20260901020055 | 83 | 224 | 0.0 | 0.0 | 0.00 | 0.00 | 0.00 | 71 | 1008.4 |
| 20260901014605 | 84 | 224 | 0.0 | 0.0 | 0.00 | 0.00 | 0.00 | 71 | 1008.4 |
| 20260901013052 | 85 | 224 | 0.0 | 0.0 | 0.00 | 0.00 | 0.00 | 68 | 1008.2 |
| 20260901011553 | 87 | 224 | 0.0 | 0.0 | 0.00 | 0.00 | 0.00 | 66 | 1008.1 |
| 20260901010053 | 89 | 224 | 0.0 | 1.0 | 0.00 | 0.00 | 0.00 | 64 | 1008.1 |
| 20260901004605 | 91 | 224 | 0.0 | 1.0 | 0.00 | 0.00 | 0.00 | 61 | 1008.0 |
| 20260901003054 | 94 | 224 | 0.0 | 1.0 | 0.00 | 0.00 | 0.00 | 56 | 1007.9 |
| 20260901001557 | 96 | 224 | 0.0 | 1.0 | 0.00 | 0.00 | 0.00 | 53 | 1008.0 |
| 20260831234550 | 98 | 224 | 0.0 | 1.0 | 0.00 | 0.00 | 0.00 | 50 | 1007.9 |
| 20260831233050 | 99 | 224 | 0.0 | 1.0 | 0.00 | 0.00 | 0.00 | 50 | 1007.9 |
| 20260831231551 | 100 | 224 | 0.0 | 2.0 | 0.00 | 0.00 | 0.00 | 44 | 1007.8 |
| 20260831230048 | 100 | 224 | 0.0 | 3.0 | 0.00 | 0.00 | 0.00 | 46 | 1007.8 |
| 20260831224546 | 100 | 224 | 1.0 | 4.0 | 0.00 | 0.00 | 0.00 | 44 | 1007.9 |
| 20260831223047 | 100 | 186 | 1.0 | 5.0 | 0.00 | 0.00 | 0.00 | 44 | 1007.9 |
| 20260831221546 | 100 | 188 | 2.0 | 5.0 | 0.00 | 0.00 | 0.00 | 42 | 1008.0 |
| 20260831220044 | 101 | 283 | 0.0 | 5.0 | 0.00 | 0.00 | 0.00 | 42 | 1008.0 |
| 20260831214542 | 99 | 300 | 2.0 | 7.0 | 0.00 | 0.00 | 0.00 | 44 | 1008.1 |
| 20260831213042 | 100 | 257 | 4.0 | 8.0 | 0.00 | 0.00 | 0.00 | 41 | 1008.1 |
| 20260831211543 | 100 | 216 | 0.0 | 5.0 | 0.00 | 0.00 | 0.00 | 45 | 1008.1 |
| 20260831210038 | 99 | 254 | 2.0 | 8.0 | 0.00 | 0.00 | 0.00 | 45 | 1008.3 |
| 20260831204541 | 99 | 310 | 3.0 | 8.0 | 0.00 | 0.00 | 0.00 | 44 | 1008.3 |
| 20260831203035 | 98 | 239 | 3.0 | 9.0 | 0.00 | 0.00 | 0.00 | 45 | 1008.6 |
| 20260831201534 | 97 | 236 | 5.0 | 12.0 | 0.00 | 0.00 | 0.00 | 45 | 1008.7 |
| 20260831200033 | 98 | 292 | 3.0 | 8.0 | 0.00 | 0.00 | 0.00 | 46 | 1008.7 |
| 20260831194532 | 98 | 224 | 6.0 | 10.0 | 0.00 | 0.00 | 0.00 | 45 | 1008.7 |
| 20260831193040 | 97 | 219 | 1.0 | 8.0 | 0.00 | 0.00 | 0.00 | 46 | 1008.7 |
| 20260831191530 | 97 | 199 | 0.0 | 7.0 | 0.00 | 0.00 | 0.00 | 47 | 1008.7 |
| 20260831190040 | 96 | 226 | 2.0 | 13.0 | 0.00 | 0.00 | 0.00 | 47 | 1008.7 |
| 20260831184525 | 96 | 97 | 3.0 | 8.0 | 0.00 | 0.00 | 0.00 | 49 | 1008.8 |
| 20260831183024 | 96 | 231 | 4.0 | 12.0 | 0.00 | 0.00 | 0.00 | 48 | 1008.8 |
| 20260831181523 | 95 | 236 | 4.0 | 8.0 | 0.00 | 0.00 | 0.00 | 50 | 1009.1 |
| 20260831180021 | 94 | 226 | 4.0 | 8.0 | 0.00 | 0.00 | 0.00 | 51 | 1009.1 |
| 20260831174519 | 94 | 268 | 2.0 | 7.0 | 0.00 | 0.00 | 0.00 | 50 | 1009.4 |
| 20260831173019 | 92 | 208 | 0.0 | 10.0 | 0.00 | 0.00 | 0.00 | 54 | 1009.2 |
| 20260831171515 | 92 | 231 | 4.0 | 9.0 | 0.00 | 0.00 | 0.00 | 52 | 1009.3 |
| 20260831170014 | 91 | 226 | 5.0 | 8.0 | 0.00 | 0.00 | 0.00 | 54 | 1009.4 |
| 20260831164517 | 90 | 193 | 3.0 | 7.0 | 0.00 | 0.00 | 0.00 | 56 | 1009.4 |
| 20260831163010 | 89 | 204 | 2.0 | 9.0 | 0.00 | 0.00 | 0.00 | 57 | 1009.5 |
| 20260831161503 | 88 | 270 | 2.0 | 8.0 | 0.00 | 0.00 | 0.00 | 59 | 1009.6 |
| 20260831154613 | 85 | 204 | 4.0 | 10.0 | 0.00 | 0.00 | 0.00 | 61 | 1009.7 |
| 20260831153112 | 84 | 214 | 1.0 | 6.0 | 0.00 | 0.00 | 0.00 | 63 | 1009.6 |
| 20260831151607 | 84 | 208 | 1.0 | 8.0 | 0.00 | 0.00 | 0.00 | 64 | 1009.5 |
| 20260831144559 | 82 | 227 | 2.0 | 8.0 | 0.00 | 0.00 | 0.00 | 66 | 1009.5 |
| 20260831143056 | 81 | 176 | 3.0 | 9.0 | 0.00 | 0.00 | 0.00 | 65 | 1009.7 |
| 20260831141558 | 80 | 243 | 2.0 | 5.0 | 0.00 | 0.00 | 0.00 | 67 | 1009.9 |
| 20260831140055 | 80 | 224 | 0.0 | 9.0 | 0.00 | 0.00 | 0.00 | 67 | 1009.8 |
| 20260831134600 | 79 | 218 | 1.0 | 4.0 | 0.00 | 0.00 | 0.00 | 67 | 1009.7 |
| 20260831133102 | 79 | 193 | 3.0 | 11.0 | 0.00 | 0.00 | 0.00 | 66 | 1009.6 |